Regional Weather Roundup
Issued by NWS Huntsville, AL

Home | Current Version | Previous Version | Text Only | Print | Product List | Glossary On
Versions: 1 2 3 4 5 6 7 8 9 10 11 12 13 14 15 16 17 18 19 20 21 22 23 24 25 26 27 28 29 30 31 32 33 34 35 36 37 38 39 40 41 42 43 44 45 46 47 48 49 50
000
ASUS44 KHUN 272110
RWRHUN

WEATHER ROUNDUP FOR THE TENNESSEE VALLEY
NATIONAL WEATHER SERVICE HUNTSVILLE AL
400 PM CDT THU JUL 27 2017

ALZ001>004-272200-
NORTHWEST ALABAMA

CITY           SKY/WX    TMP DP  RH WIND       PRES   REMARKS
COURTLAND HCN    N/A     93 N/A N/A W10         N/A
RUSSELLVILLE     N/A     91 N/A N/A MISG        N/A
SHOALS AIRPORT MOSUNNY   95  69  42 W9        29.96F HX 100
SHOALS TVA RES   N/A     93 N/A N/A MISG        N/A
$$

ALZ005>007-016-272200-
NORTH CENTRAL ALABAMA

CITY           SKY/WX    TMP DP  RH WIND       PRES   REMARKS
CULLMAN AG STN   N/A     91 N/A N/A W8          N/A
DECATUR AP     CLOUDY    93  71  48 W9        29.95F HX 100
HUNTSVILLE AP  PTSUNNY   93  71  48 W7        29.95F HX 100
MERIDIANVILLE  SUNNY     90  64  43 W9        29.97S HX  91
REDSTONE ARSN  MOSUNNY   92  70  48 NW9       29.94F HX  98
VINEMONT AP    FAIR      94  68  42 W6        30.00F HX  98
$$

ALZ008>010-272200-
NORTHEAST ALABAMA

CITY           SKY/WX    TMP DP  RH WIND       PRES   REMARKS
ALBERTVILLE    PTSUNNY   91  79  66 W12       29.98S HX 107
FORT PAYNE     CLOUDY    90  68  48 W9        29.97R HX  93
SCOTTSBORO HCN   N/A     91 N/A N/A MISG        N/A
VALLEY HEAD      N/A     82 N/A N/A MISG        N/A
$$

TNZ076-096-097-272200-
SOUTHEASTERN MIDDLE TENNESSEE

CITY           SKY/WX    TMP DP  RH WIND       PRES   REMARKS
TULLAHOMA      SUNNY     86  70  58 W7        29.98F HX  90
WINCHESTER     MOSUNNY   91  70  49 VRB5      29.97F HX  97
$$

...SURROUNDING SITES...

CITY           SKY/WX    TMP DP  RH WIND       PRES   REMARKS
ATLANTA        PTSUNNY   90  71  53 VRB3      29.98F HX  96
ANNISTON       CLOUDY    87  74  64 SW6       29.98R HX  95
BIRMINGHAM     MOSUNNY   92  71  50 W13G20    29.99F HX  98
CHATTANOOGA    CLOUDY    84  74  71 S6        29.98F HX  91
CORINTH        FAIR      86  75  70 CALM      29.94F HX  95
DALTON         NOT AVBL
GADSDEN        CLOUDY    93  75  55 W9        29.96F HX 104
GOLDEN TRNGL   MOSUNNY   97  70  41 SW7       29.92F HX 103
JACKSON TN     CLOUDY    93  75  55 SW9       29.92F HX 104
MEMPHIS        PTSUNNY   91  75  59 SW10      29.93F HX 101
NASHVILLE      CLOUDY    92  71  50 SW8       29.93F HX  98
OXFORD MS      FAIR      90  72  55 W8        29.97F HX  96
ROME           CLOUDY    86  73  65 VRB5      29.98R HX  93
SAVANNAH       MOSUNNY   82  75  78 E3        29.94F
TUPELO         PTSUNNY   86  74  67 SW6       29.95F HX  94
TUSCALOOSA     SUNNY     94  73  50 NW8       29.95F HX 103
$$

...GULF COAST WEATHER...

CITY           SKY/WX    TMP DP  RH WIND       PRES   REMARKS
GULFPORT       CLOUDY    96  72  45 N10       29.97F HX 104
PASCAGOULA     LGT RAIN  77  73  87 E5        30.00S
MOBILE         TSTM      78  73  84 SW10      30.02R
GULF SHORES    CLEAR     87  79  76 SW9       29.97F HX 101
PENSACOLA      PTSUNNY   91  77  63 SW12      29.96F HX 104
DESTIN         MOSUNNY   91  75  59 SW6       29.96F HX 101
PANAMA CITY    SUNNY     88  76  67 W12       29.95F HX  99
APPALACHICOLA  TSTM      80  80 100 VRB3G18   29.96R VSB 3/4
$$




USA.gov is the U.S. government's official web portal to all federal, state and local government web resources and services.